Weather History for Springfield, CO

Change the Weather History Date:

Saturday, July 13, 2013

  Actual Average Record
Temperature  
Mean Temperature 84 °F -  
Max Temperature 98 °F 91 °F 102 °F (2003)
Min Temperature 69 °F 62 °F 49 °F (2008)
Degree Days  
Heating Degree Days 0 0  
Month to date heating degree days 0 0  
Since 1 June heating degree days 19 21  
Since 1 July heating degree days 0 0  
Cooling Degree Days 19 11  
Month to date cooling degree days 166 141  
Year to date cooling degree days 634 403  
Since 1 June cooling degree days 517 349  
Growing Degree Days 34 (Base 50)    
Moisture  
Dew Point 52 °F    
Average Humidity 38    
Maximum Humidity 57    
Minimum Humidity 18    
Precipitation  
Precipitation 0.00 in 0.10 in 0.18 in (2001)
Month to date precipitation 1.50 1.21  
Year to date precipitation 5.22 9.28  
Sea Level Pressure  
Sea Level Pressure 29.82 in    
Wind  
Wind Speed 12 mph (SW)    
Max Wind Speed 24 mph    
Max Gust Speed 32 mph    
T = Trace of Precipitation, MM = Missing Value Source: NWS Daily Summary

Daily Weather History Graph

Daily Weather History Graph

Search for Another Location

Airport:

Trip Planner

Search our weather history database for the weather conditions in past years. The results will help you decide how hot, cold, wet, or windy it might be!

Date:

Astronomy

Jul. 13, 2013 Rise Set
Actual Time 5:40 AM MDT 8:11 PM MDT
Civil Twilight 5:10 AM MDT 8:41 PM MDT
Nautical Twilight 4:32 AM MDT 9:19 PM MDT
Astronomical Twilight 3:51 AM MDT 10:00 PM MDT
Moon 10:50 AM MDT (7/13) 11:01 PM MDT (7/13)
Length of Visible Light 15h 31m
Length of Day
14h 30m
Waxing Crescent, 26% of the Moon is Illuminated
Jul 13
Waxing Crescent
Jul 15
First Quarter
Jul 22
Full
Jul 29
Last Quarter
Aug 6
New

Hourly Weather History & Observations

Time (MDT) Temp. Heat Index Dew Point Humidity Pressure Visibility Wind Dir Wind Speed Gust Speed Precip Events Conditions
12:56 AM 75.0 °F - 54.0 °F 48% 29.83 in - SSW 12.7 mph - N/A   Unknown
1:56 AM 73.0 °F - 55.0 °F 53% 29.82 in - SSW 10.4 mph - N/A   Unknown
2:56 AM 72.0 °F - 55.0 °F 55% 29.83 in - SW 10.4 mph - N/A   Unknown
3:56 AM 72.0 °F - 55.0 °F 55% 29.82 in - SW 11.5 mph - N/A   Unknown
4:56 AM 71.1 °F - 55.0 °F 57% 29.83 in - SW 11.5 mph - N/A   Unknown
5:56 AM 69.1 °F - 54.0 °F 58% 29.86 in - WSW 8.1 mph - N/A   Unknown
6:56 AM 73.0 °F - 55.9 °F 55% 29.86 in - WSW 6.9 mph - N/A   Unknown
7:56 AM 81.0 °F 80.5 °F 54.0 °F 39% 29.85 in - WSW 12.7 mph - N/A   Unknown
8:56 AM 84.9 °F 83.2 °F 53.1 °F 33% 29.86 in - West 12.7 mph 21.9 mph N/A   Unknown
9:56 AM 88.0 °F 85.9 °F 54.0 °F 31% 29.85 in - WSW 11.5 mph 20.7 mph N/A   Unknown
10:56 AM 91.9 °F 89.5 °F 54.0 °F 27% 29.83 in - SW 9.2 mph - N/A   Unknown
11:56 AM 93.9 °F - 50.0 °F 22% 29.82 in - SW 13.8 mph 20.7 mph N/A   Unknown
12:56 PM 96.1 °F - 51.1 °F 22% 29.81 in - WSW 10.4 mph 21.9 mph N/A   Unknown
1:56 PM 96.1 °F - 50.0 °F 21% 29.79 in - SSW 13.8 mph 24.2 mph N/A   Unknown
2:56 PM 96.1 °F - 48.9 °F 20% 29.78 in - SSW 18.4 mph 31.1 mph N/A   Unknown
3:56 PM 98.1 °F - 48.0 °F 18% 29.77 in - WSW 17.3 mph 26.5 mph N/A   Unknown
4:56 PM 96.1 °F - 48.9 °F 20% 29.75 in - SSW 20.7 mph 25.3 mph N/A   Unknown
5:56 PM 95.0 °F - 48.9 °F 21% 29.75 in - SSW 17.3 mph 32.2 mph N/A   Unknown
6:56 PM 91.9 °F - 48.0 °F 22% 29.75 in - SSW 18.4 mph - N/A   Unknown
7:56 PM 89.1 °F - 48.0 °F 24% 29.76 in - SSW 16.1 mph - N/A   Unknown
8:56 PM 87.1 °F - 48.9 °F 27% 29.77 in - SSW 13.8 mph - N/A   Unknown
9:46 PM 84.2 °F 82.8 °F 53.6 °F 35% 30.05 in - North 13.8 mph 29.9 mph N/A   Unknown
9:56 PM 82.9 °F 82.0 °F 55.0 °F 38% 29.83 in - NW 4.6 mph - N/A   Unknown
10:56 PM 84.0 °F - 51.1 °F 32% 29.82 in - WSW 6.9 mph - N/A   Unknown
11:56 PM 78.1 °F - 60.1 °F 54% 29.83 in - North 4.6 mph - N/A   Unknown